Location: Friaudour
(46.0460°N, 1.2873°E)
Time: 08:52:23
(UTC+00:00)

CZ-4C R/B - Pass Details

Date: 14 July 2020
Orbit: 632 x 1370 km, 63.4° (Epoch: 14 August)

Event Time Altitude Azimuth Distance (km) Brightness Sun altitude
Rises 00:15:12 0° 315° (NW) 3,927 6.3 -22.2°
Reaches altitude 10° 00:18:00 10° 306° (NW) 3,070 5.5 -22.2°
Maximum altitude 00:24:32 34° 246° (WSW) 1,981 3.8 -22.1°
Enters shadow 00:26:33 30° 219° (SW) 2,153 3.8 -22.1°
